Aéroclub Castres-Mazamet
ACCUEIL




METAR
LFCK 282130Z AUTO 00000KT CAVOK 08/02 Q1019



Liens utiles
F.F.A
Météo France
OLIVIA
SIA
D.G.A.C
Bienvenue à l'aéroclub de Castres-Mazamet


               





Actualités

 Assemblée Générale   
Publié le 06-Jan-2019    
L'AG du club aura lieu le vendredi 15 février 2019


Voir plus